This is the latest recevied weather packets stored in our database for station/object K4GSL. If no packets are shown the sender has not sent any weather packets the latest 10 day(s).
| Time | Temp. | Humidity | Pressure | Rain* | Wind** | Luminosity | Snow |
|---|---|---|---|---|---|---|---|
| 1777821727 | 13.33° C | 92% | 1016 hPa | 0 mm | - | 33 W/m² | - |
| 1777821424 | 12.78° C | 92% | 1016 hPa | 0 mm | - | 32 W/m² | - |
| 1777821121 | 12.78° C | 93% | 1016.1 hPa | 0 mm | - | 31 W/m² | - |
| 1777820818 | 12.22° C | 95% | 1015.8 hPa | 0 mm | - | 31 W/m² | - |
| 1777820514 | 11.67° C | 97% | 1016.1 hPa | 0 mm | - | 29 W/m² | - |
| 1777820211 | 11.67° C | 98% | 1015.9 hPa | 0 mm | - | 29 W/m² | - |
| 1777819909 | 11.11° C | 99% | 1015.9 hPa | 0 mm | - | 28 W/m² | - |
| 1777819606 | 11.11° C | 99% | 1016 hPa | 0 mm | - | 28 W/m² | - |
| 1777819304 | 10.56° C | 99% | 1015.9 hPa | 0 mm | - | 26 W/m² | - |
| 1777819000 | 10.56° C | 99% | 1015.9 hPa | 0 mm | - | 26 W/m² | - |
| 1777818697 | 10° C | 99% | 1015.9 hPa | 0 mm | - | 25 W/m² | - |
| 1777818394 | 10° C | 99% | 1016.2 hPa | 0 mm | - | 23 W/m² | - |
| 1777818090 | 9.44° C | 99% | 1016 hPa | 0 mm | - | 23 W/m² | - |
| 1777817787 | 8.89° C | 99% | 1015.8 hPa | 0 mm | - | 23 W/m² | - |
| 1777817485 | 8.89° C | 99% | 1016 hPa | 0 mm | - | 21 W/m² | - |
| 1777817180 | 8.89° C | 99% | 1016 hPa | 0 mm | - | 20 W/m² | - |
| 1777816879 | 8.33° C | 99% | 1015.9 hPa | 0 mm | - | 19 W/m² | - |
| 1777816575 | 8.33° C | 99% | 1015.7 hPa | 0 mm | - | 18 W/m² | - |
| 1777816272 | 8.33° C | 99% | 1016 hPa | 0 mm | - | 17 W/m² | - |
| 1777815969 | 8.33° C | 99% | 1015.9 hPa | 0 mm | - | 16 W/m² | - |
| 1777815667 | 7.78° C | 99% | 1015.8 hPa | 0 mm | - | 18 W/m² | - |
| 1777815364 | 7.78° C | 99% | 1016 hPa | 0 mm | - | 14 W/m² | - |
| 1777815060 | 7.22° C | 99% | 1015.9 hPa | 0 mm | - | 11 W/m² | - |
| 1777814757 | 7.22° C | 99% | 1016 hPa | 0 mm | - | 10 W/m² | - |
| 1777814454 | 7.22° C | 99% | 1016 hPa | 0 mm | - | 8 W/m² | - |
* Rain latest hour (hover to see other rain measurements)
** Current wind speed in m/s (hover to see current wind gust speed)